Miscellaneous Local Product
Issued by NWS Hastings, NE

Home | Current Version | Previous Version | Text Only | Print | Product List | Glossary On
Versions: 1 2 3 4 5 6 7 8 9 10 11 12 13 14 15 16 17 18 19 20 21 22 23 24 25 26 27 28 29 30 31 32 33 34 35 36 37 38 39 40 41 42 43 44 45 46 47 48 49 50
000
AXUS43 KGID 232102
MISGRI

GID CWA HOURLY WEATHER ROUNDUP
NATIONAL WEATHER SERVICE HASTINGS NE
400 PM CDT WED APR 23 2014

NOTE: "FAIR" INDICATES FEW OR NO CLOUDS BELOW 12,000 FEET WITH NO
SIGNIFICANT WEATHER AND/OR OBSTRUCTIONS TO VISIBILITY.

...SOUTH CENTRAL NEBRASKA...

CITY           SKY/WX    TMP DP  RH WIND       PRES   REMARKS
GRAND ISLAND   SUNNY     80  51  36 S28G39    29.54F
HASTINGS       MOSUNNY   78  49  35 S15G29    29.53F
KEARNEY        MOSUNNY   82  52  34 S26G35    29.51F
ORD            PTSUNNY   79  50  36 S17G28    29.51S
YORK           PTSUNNY   75  48  38 S24G35    29.60F
AURORA         SUNNY     79  49  35 S24G41    29.56F
LEXINGTON      CLOUDY    81  46  29 W12       29.52F
HOLDREGE       PTSUNNY   81  45  27 SW12G30   29.52F
HEBRON         PTSUNNY   77  48  35 S23G32    29.62S

...NEBRASKA PANHANDLE...

CITY           SKY/WX    TMP DP  RH WIND       PRES   REMARKS
CHADRON        MOSUNNY   69  25  19 W26G35    29.62S
ALLIANCE       MOSUNNY   68  20  16 NW26G39   29.63S
SCOTTSBLUFF    MOSUNNY   65  20  17 W26G44    29.66S
SIDNEY         MOSUNNY   70  27  20 N28G38    29.65S

...WESTERN AND NORTH CENTRAL NEBRASKA...

CITY           SKY/WX    TMP DP  RH WIND       PRES   REMARKS
VALENTINE      MOSUNNY   74  29  19 NW20G28   29.54R
AINSWORTH      MOSUNNY   77  37  23 NW20G29   29.53S
ONEILL         MOSUNNY   78  41  26 S20G26    29.52F
BROKEN BOW     CLOUDY    77  42  28 NW13      29.55R
IMPERIAL       SUNNY     79  33  19 N16G25    29.58R
NORTH PLATTE   MOSUNNY   79  41  25 N15G22    29.55S
MCCOOK         CLOUDY    79  44  28 N9G18     29.54F

...EASTERN NEBRASKA...

CITY           SKY/WX    TMP DP  RH WIND       PRES   REMARKS
NORFOLK        MOSUNNY   73  45  36 S25G36    29.60F
SO SIOUX CITY  MOSUNNY   64  43  46 S30G36    29.71R
TEKAMAH        PTSUNNY   62  45  53 SE25G32   29.69F
COLUMBUS       MOSUNNY   68  45  42 S29G38    29.62F
ALBION         MOSUNNY   74  44  34 S28       29.58S
OMAHA EPPLEY   LGT RAIN  54  44  69 SE23      29.72S
OFFUTT AFB     PTSUNNY   54  48  79 SE6       29.75R
MILLARD        LGT RAIN  54  45  72 SE13G18   29.72F
LINCOLN        CLOUDY    64  44  48 SE18G28   29.68F
NEBRASKA CITY  CLOUDY    57  45  64 SE26G33   29.70F
BEATRICE       CLOUDY    67  46  47 SE18G29   29.63F
FALLS CITY     CLOUDY    65  46  50 SE24G35   29.69F

...NORTHERN KANSAS...

CITY           SKY/WX    TMP DP  RH WIND       PRES   REMARKS
GOODLAND       SUNNY     80  40  23 NE22G32   29.54S
HILL CITY      CLOUDY    86  50  28 S23G36    29.51F
PHILLIPSBURG   MOSUNNY   84  46  26 S26G37    29.50S
SMITH CENTER   SUNNY     82  48  30 S36G41    29.53F
BELOIT         MOSUNNY   82  48  30 S24G33    29.55F
HAYS           CLOUDY   N/A N/A N/A S36G43    29.55F
RUSSELL        CLOUDY    81  48  31 S37G47    29.55F
CONCORDIA      CLOUDY    81  49  32 S25G36    29.60F
SALINA         CLOUDY    84  47  27 S23G39    29.61F
TOPEKA         PTSUNNY   80  46  30 S18G25    29.76F



USA.gov is the U.S. government's official web portal to all federal, state and local government web resources and services.